TimeEST,TemperatureF,Dew PointF,Humidity,Sea Level PressureIn,VisibilityMPH,Wind Direction,Wind SpeedMPH,Gust SpeedMPH,PrecipitationIn,Events,Conditions,WindDirDegrees,DateUTC
12:15 AM,32.0,28.9,88,30.31,10.0,ESE,6.9,-,N/A,,Overcast,120,2012-12-01 05:15:00
12:36 AM,32.0,29.3,90,30.30,10.0,ESE,6.9,-,N/A,,Overcast,110,2012-12-01 05:36:00
12:55 AM,32.0,29.3,90,30.30,10.0,ESE,5.8,-,N/A,,Overcast,110,2012-12-01 05:55:00
1:16 AM,32.0,29.7,91,30.29,10.0,ESE,8.1,-,N/A,,Overcast,120,2012-12-01 06:16:00
1:35 AM,32.4,30.0,91,30.29,10.0,ESE,5.8,-,N/A,,Overcast,120,2012-12-01 06:35:00
1:55 AM,32.5,30.2,91,30.29,10.0,ESE,4.6,-,N/A,,Overcast,120,2012-12-01 06:55:00
2:16 AM,32.4,30.2,92,30.29,10.0,SE,3.5,-,N/A,,Overcast,130,2012-12-01 07:16:00
2:35 AM,32.7,30.4,91,30.30,10.0,ESE,5.8,-,N/A,,Overcast,120,2012-12-01 07:35:00
2:55 AM,32.9,31.1,93,30.30,7.0,SE,5.8,-,N/A,,Overcast,130,2012-12-01 07:55:00
3:16 AM,32.9,31.5,94,30.29,7.0,SE,6.9,-,N/A,,Overcast,130,2012-12-01 08:16:00
3:55 AM,32.9,31.8,96,30.29,5.0,SE,8.1,-,N/A,,Overcast,140,2012-12-01 08:55:00
4:16 AM,32.9,31.6,95,30.28,5.0,SE,6.9,-,N/A,,Overcast,130,2012-12-01 09:16:00
4:35 AM,32.9,31.8,96,30.26,7.0,SE,9.2,-,N/A,,Overcast,130,2012-12-01 09:35:00
4:55 AM,32.9,31.8,96,30.25,7.0,SE,10.4,-,N/A,,Overcast,130,2012-12-01 09:55:00
5:15 AM,32.9,31.8,96,30.24,5.0,SE,8.1,-,N/A,,Overcast,130,2012-12-01 10:15:00
5:35 AM,33.1,31.8,95,30.24,7.0,SE,8.1,-,N/A,,Overcast,130,2012-12-01 10:35:00
5:55 AM,33.3,31.8,94,30.23,7.0,ESE,10.4,-,N/A,,Overcast,120,2012-12-01 10:55:00
6:15 AM,33.4,31.8,94,30.23,7.0,SE,6.9,-,N/A,,Overcast,130,2012-12-01 11:15:00
6:36 AM,33.6,31.8,93,30.23,7.0,SE,6.9,-,N/A,,Overcast,140,2012-12-01 11:36:00
6:55 AM,33.8,32.0,93,30.23,7.0,SE,8.1,-,N/A,,Overcast,140,2012-12-01 11:55:00
7:15 AM,33.6,32.0,94,30.22,7.0,SE,8.1,-,N/A,,Overcast,130,2012-12-01 12:15:00
7:36 AM,33.8,32.0,93,30.23,7.0,SE,8.1,-,N/A,,Overcast,140,2012-12-01 12:36:00
7:55 AM,33.8,31.8,92,30.22,7.0,SE,10.4,-,N/A,,Overcast,130,2012-12-01 12:55:00
8:16 AM,33.8,32.0,93,30.22,7.0,SE,8.1,-,N/A,,Overcast,130,2012-12-01 13:16:00
8:35 AM,34.0,32.0,92,30.21,7.0,SE,8.1,-,N/A,,Overcast,130,2012-12-01 13:35:00
8:55 AM,34.0,32.0,92,30.19,5.0,ESE,8.1,-,N/A,,Overcast,120,2012-12-01 13:55:00
9:16 AM,34.2,32.0,92,30.18,7.0,SE,10.4,-,N/A,,Overcast,130,2012-12-01 14:16:00
9:35 AM,34.5,32.0,90,30.18,7.0,SE,11.5,-,N/A,,Overcast,130,2012-12-01 14:35:00
9:55 AM,34.7,32.0,90,30.18,5.0,SE,10.4,17.3,N/A,,Overcast,130,2012-12-01 14:55:00
10:15 AM,34.7,32.0,90,30.17,7.0,SE,9.2,16.1,N/A,,Overcast,140,2012-12-01 15:15:00
10:35 AM,34.9,32.0,89,30.18,5.0,SE,9.2,-,N/A,,Overcast,140,2012-12-01 15:35:00
10:56 AM,35.1,32.0,89,30.16,5.0,SE,9.2,-,N/A,,Overcast,140,2012-12-01 15:56:00
11:15 AM,35.2,32.0,88,30.15,5.0,SE,9.2,-,N/A,,Overcast,130,2012-12-01 16:15:00
11:35 AM,35.6,32.0,87,30.14,5.0,SE,10.4,-,N/A,,Overcast,130,2012-12-01 16:35:00
11:55 AM,35.6,32.0,87,30.13,5.0,SE,10.4,-,N/A,,Overcast,140,2012-12-01 16:55:00
12:15 PM,35.8,32.2,87,30.11,7.0,SE,10.4,-,N/A,,Overcast,140,2012-12-01 17:15:00
12:36 PM,36.0,32.4,87,30.10,7.0,SE,9.2,-,N/A,,Overcast,140,2012-12-01 17:36:00
12:55 PM,36.7,32.5,85,30.09,7.0,SE,9.2,-,N/A,,Overcast,140,2012-12-01 17:55:00
1:15 PM,36.7,32.5,85,30.08,7.0,SE,10.4,-,N/A,,Overcast,140,2012-12-01 18:15:00
1:36 PM,36.9,32.9,86,30.07,7.0,SE,8.1,-,N/A,,Overcast,130,2012-12-01 18:36:00
1:55 PM,37.0,32.7,84,30.05,7.0,SE,8.1,-,N/A,,Mostly Cloudy,130,2012-12-01 18:55:00
2:15 PM,37.4,32.7,83,30.05,7.0,SE,9.2,-,N/A,,Overcast,140,2012-12-01 19:15:00
2:35 PM,37.4,32.5,83,30.04,7.0,SSE,10.4,-,N/A,,Mostly Cloudy,150,2012-12-01 19:35:00
2:55 PM,37.4,32.5,83,30.03,7.0,SSE,9.2,-,N/A,,Scattered Clouds,150,2012-12-01 19:55:00
3:16 PM,37.0,32.5,84,30.03,5.0,SSE,9.2,-,N/A,,Scattered Clouds,150,2012-12-01 20:16:00
3:36 PM,37.0,32.7,84,30.02,5.0,SE,6.9,-,N/A,,Mostly Cloudy,140,2012-12-01 20:36:00
3:55 PM,36.5,32.5,86,30.01,5.0,SE,6.9,-,N/A,,Mostly Cloudy,140,2012-12-01 20:55:00
4:15 PM,36.3,32.4,86,30.00,5.0,SE,6.9,-,N/A,,Scattered Clouds,140,2012-12-01 21:15:00
4:35 PM,36.0,32.4,87,29.99,4.0,SSE,6.9,-,N/A,,Clear,150,2012-12-01 21:35:00
5:15 PM,35.6,32.2,87,29.98,5.0,SSE,6.9,-,N/A,,Clear,150,2012-12-01 22:15:00
5:36 PM,35.2,32.2,89,29.98,5.0,SSE,5.8,-,N/A,,Scattered Clouds,150,2012-12-01 22:36:00
5:55 PM,35.6,32.4,88,29.98,5.0,SSE,5.8,-,N/A,,Mostly Cloudy,150,2012-12-01 22:55:00
6:15 PM,35.6,32.5,89,29.97,5.0,SE,5.8,-,N/A,,Overcast,140,2012-12-01 23:15:00
6:55 PM,35.6,32.5,89,29.95,5.0,SSE,8.1,-,N/A,,Overcast,160,2012-12-01 23:55:00
7:15 PM,35.8,32.9,89,29.94,5.0,SE,6.9,-,N/A,,Overcast,140,2012-12-02 00:15:00
7:36 PM,35.8,32.9,89,29.93,5.0,SSE,9.2,-,N/A,,Overcast,150,2012-12-02 00:36:00
7:55 PM,35.6,33.1,91,29.90,5.0,SSE,12.7,17.3,N/A,,Overcast,150,2012-12-02 00:55:00
8:15 PM,35.8,34.0,93,29.90,4.0,SSE,10.4,16.1,N/A,Rain,Rain,160,2012-12-02 01:15:00
8:35 PM,36.0,34.3,94,29.88,4.0,SSE,10.4,-,N/A,Rain,Light Rain,150,2012-12-02 01:35:00
8:55 PM,36.3,34.7,94,29.87,3.0,South,8.1,-,N/A,Rain,Light Rain,170,2012-12-02 01:55:00
9:16 PM,36.7,35.4,95,29.86,4.0,South,8.1,-,N/A,,Light Drizzle,170,2012-12-02 02:16:00
9:35 PM,37.4,36.0,95,29.86,4.0,South,6.9,-,N/A,,Overcast,190,2012-12-02 02:35:00
9:55 PM,37.8,36.5,95,29.85,3.0,South,9.2,-,N/A,Rain,Light Rain,180,2012-12-02 02:55:00
10:15 PM,38.5,37.0,95,29.84,4.0,South,8.1,-,N/A,,Overcast,180,2012-12-02 03:15:00
10:35 PM,39.0,37.8,95,29.83,3.0,South,8.1,-,N/A,Rain,Rain,180,2012-12-02 03:35:00
10:55 PM,39.4,38.3,96,29.82,3.0,South,6.9,-,N/A,Rain,Light Rain,170,2012-12-02 03:55:00
11:15 PM,40.1,38.8,95,29.82,3.0,SSW,5.8,-,N/A,Rain,Light Rain,200,2012-12-02 04:15:00
11:35 PM,40.3,39.2,96,29.81,4.0,South,5.8,-,N/A,Rain,Light Rain,190,2012-12-02 04:35:00
11:56 PM,40.5,39.4,96,29.81,2.5,South,5.8,-,N/A,Rain,Light Rain,180,2012-12-02 04:56:00